User: anonymous   Login
Location: Easthampton
(42.2676°N, 72.6690°W)
Time: 09:35:39
(UTC+00:00)
Language:

SEEDS - Orbit

View from above orbital plane
View from above orbital plane
View from above satellite
View from above satellite

Ground track
Ground track

The orbit data is extracted from the following two-line orbital elements,

1 32791U 08021J   24110.88796697  .00028090  00000-0  21220-2 0  9999
2 32791  97.6837  82.4646 0007040 126.5572 233.6301 15.02319163867845
Epoch (UTC): 19 April 2024 21:18:40
Eccentricity: 0.0007040
inclination: 97.6837°
perigee height: 555 km
apogee height: 564 km
right ascension of ascending node: 82.4646°
argument of perigee: 126.5572°
revolutions per day: 15.02319163
mean anomaly at epoch: 233.6301°
orbit number at epoch: 86784

The dashed part of the orbit path shows where the satellite is in the earth's shadow,  

DLR